Location: Moscow
(55.7500°N, 37.5830°E)
Time: 05:19:57
(UTC+03:00)

Envisat - Pass Details

Date: 29 October 2021
Orbit: 764 x 766 km, 98.2° (Epoch: 28 November)

Event Time Altitude Azimuth Distance (km) Brightness Sun altitude
Rises 05:48:05 0° 16° (NNE) 3,247 6.4 -14.7°
Reaches altitude 10° 05:50:24 10° 18° (NNE) 2,316 5.7 -14.3°
Maximum altitude 05:55:31 78° 105° (ESE) 789 3.2 -13.6°
Drops below altitude 10° 06:00:36 10° 192° (SSW) 2,299 5.4 -12.9°
Sets 06:02:54 0° 194° (SSW) 3,220 6.1 -12.6°
